period_start,C,m1,H,J0,J1,J2,J3,J4,J5,JA,JB,JC,JD,JJ,JK,JN,#
2014-12-21 00:02:41,0.09,4.51,0.00,20.66,25.37,28.67,4.88,26.98,1020.52,2035.99,2051.59,2257.00,2448.63,350.32,352.09,33.25,0000 0000 0000 0000 000000
2014-12-21 00:07:42,0.09,4.52,0.00,20.64,25.37,28.67,4.86,27.07,1020.52,2035.99,2050.97,2256.48,2447.95,350.52,352.32,33.28,0000 0000 0000 0000 000000
2014-12-21 00:12:43,0.11,4.52,0.00,20.66,25.37,28.65,4.86,26.99,1020.52,2035.99,2050.10,2255.97,2447.14,350.38,352.24,33.31,0000 0000 0000 0000 000000
2014-12-21 00:17:44,0.15,4.52,0.00,20.64,25.37,28.65,4.87,27.02,1020.52,2035.98,2049.30,2255.19,2446.69,350.24,352.12,33.34,0000 0000 0000 0000 000000
2014-12-21 00:22:46,0.08,4.53,0.00,20.67,25.37,28.66,4.82,27.04,1020.52,2035.98,2048.73,2254.79,2445.98,349.50,351.42,33.37,0000 0000 0000 0000 000000
2014-12-21 00:27:47,0.14,4.53,0.00,20.67,25.37,28.65,4.83,26.91,1020.52,2035.98,2047.81,2254.04,2445.17,349.77,351.80,33.40,0000 0000 0000 0000 000000
2014-12-21 00:32:49,0.11,4.53,0.00,20.65,25.37,28.67,4.85,26.98,1020.52,2035.99,2047.04,2253.59,2444.74,350.04,352.06,33.43,0000 0000 0000 0000 000000
2014-12-21 00:37:50,0.10,4.54,0.00,20.67,25.37,28.68,4.79,27.15,1020.51,2035.98,2046.37,2252.95,2444.02,349.62,351.46,33.46,0000 0000 0000 0000 000000
2014-12-21 00:42:51,0.15,4.54,0.00,20.68,25.37,28.68,4.85,26.98,1020.51,2035.99,2045.57,2252.13,2443.30,349.65,351.48,33.49,0000 0000 0000 0000 000000
2014-12-21 00:47:53,0.05,4.54,0.00,20.66,25.37,28.67,4.87,27.07,1020.50,2035.98,2044.88,2251.92,2442.94,349.57,351.50,33.52,0000 0000 0000 0000 000000
2014-12-21 00:52:54,0.15,4.55,0.00,20.69,25.37,28.66,4.83,27.01,1020.47,2035.98,2044.19,2251.16,2442.16,349.63,351.38,33.55,0000 0000 0000 0000 000000
2014-12-21 00:57:55,0.12,4.55,0.00,20.67,25.36,28.67,4.86,27.09,1020.48,2035.99,2043.27,2250.72,2441.63,350.22,351.96,33.58,0000 0000 0000 0000 000000
2014-12-21 01:02:56,0.07,4.55,0.00,20.64,25.37,28.65,4.87,27.03,1020.41,2035.99,2042.83,2250.03,2440.98,349.90,351.78,33.60,0000 0000 0000 0000 000000
2014-12-21 01:07:58,0.15,4.56,0.00,20.64,25.36,28.66,4.80,26.94,1020.11,2035.97,2041.96,2249.48,2440.15,349.71,351.19,33.63,0000 0000 0000 0000 000000
2014-12-21 01:12:59,0.10,4.56,0.00,20.63,25.36,28.64,4.79,26.96,1020.04,2035.98,2041.08,2248.98,2439.75,349.63,350.99,33.66,0000 0000 0000 0000 000000
2014-12-21 01:18:00,0.15,4.57,0.00,20.64,25.36,28.65,4.86,27.13,1020.04,2035.97,2040.18,2248.22,2439.03,350.18,351.74,33.69,0000 0000 0000 0000 000000
2014-12-21 01:23:01,0.08,4.57,0.00,20.66,25.36,28.63,4.90,27.13,1020.04,2035.98,2039.69,2247.89,2438.47,350.41,352.13,33.72,0000 0000 0000 0000 000000
2014-12-21 01:28:03,0.23,4.57,0.00,20.64,25.36,28.67,4.82,27.27,1020.04,2035.96,2038.12,2246.85,2437.18,350.27,352.10,33.75,0000 0000 0000 0000 000000
2014-12-21 01:33:04,0.13,4.58,0.00,20.65,25.36,28.67,4.95,27.30,1020.04,2035.97,2037.18,2246.04,2436.60,350.61,352.26,33.78,0000 0000 0000 0000 000000
2014-12-21 01:38:06,0.15,4.58,0.00,20.66,25.36,28.65,4.88,27.17,1019.99,2035.98,2036.08,2245.51,2435.95,350.34,351.96,33.81,0000 0000 0000 0000 000000
2014-12-21 01:43:07,0.10,4.59,0.00,20.67,25.36,28.64,4.89,27.10,1020.02,2035.96,2035.18,2244.99,2435.16,350.21,351.64,33.84,0000 0000 0000 0000 000000
2014-12-21 01:48:09,0.13,4.59,0.00,20.66,25.37,28.68,4.85,27.02,1019.86,2035.97,2034.64,2244.30,2434.69,350.34,351.91,33.87,0000 0000 0000 0000 000000
2014-12-21 01:53:10,0.04,4.59,0.00,20.66,25.37,28.65,4.83,27.06,1019.76,2035.98,2034.01,2243.99,2434.04,349.84,351.32,33.90,0000 0000 0000 0000 000000
2014-12-21 01:58:11,0.17,4.60,0.00,20.68,25.37,28.64,4.88,27.10,1019.79,2035.98,2033.30,2243.22,2433.41,350.49,351.96,33.93,0000 0000 0000 0000 000000
2014-12-21 02:03:12,0.09,4.60,0.00,20.66,25.37,28.65,4.88,27.03,1019.98,2035.98,2032.50,2242.83,2432.88,350.25,351.66,33.96,0000 0000 0000 0000 000000
2014-12-21 02:08:13,0.13,4.60,0.00,20.67,25.37,28.65,4.85,26.98,1019.93,2035.94,2031.71,2242.05,2432.07,350.25,351.84,33.99,0000 0000 0000 0000 000000
2014-12-21 02:13:14,0.14,4.61,0.00,20.63,25.37,28.67,4.89,27.04,1019.89,2035.94,2030.78,2241.50,2431.71,350.47,352.09,34.02,0000 0000 0000 0000 000000
2014-12-21 02:18:16,0.06,4.61,0.00,20.65,25.37,28.66,4.91,26.98,1019.93,2035.91,2030.02,2241.00,2431.03,350.01,351.88,34.04,0000 0000 0000 0000 000000
2014-12-21 02:23:17,0.15,4.61,0.00,20.64,25.38,28.68,4.81,26.94,1019.80,2035.87,2029.44,2240.31,2430.34,349.33,350.80,34.07,0000 0000 0000 0000 000000
2014-12-21 02:28:18,0.32,4.62,0.00,20.64,25.38,28.65,4.84,26.95,1019.69,2035.88,2027.69,2239.38,2429.35,349.38,351.15,34.10,0000 0000 0000 0000 000000
2014-12-21 02:33:20,0.29,4.63,0.00,20.66,25.39,28.67,4.79,26.88,1019.74,2035.94,2024.67,2237.92,2427.40,349.66,351.26,34.13,0000 0000 0000 0000 000000
2014-12-21 02:38:21,0.33,4.64,0.00,20.67,25.40,28.67,4.87,27.15,1019.58,2035.80,2022.57,2236.51,2426.04,349.58,350.94,34.16,0000 0000 0000 0000 000000
2014-12-21 02:43:22,0.24,4.65,0.00,20.64,25.40,28.71,4.86,26.95,1019.56,2035.80,2020.45,2235.13,2424.53,350.46,352.10,34.19,0000 0000 0000 0000 000000
2014-12-21 02:48:23,0.12,4.65,0.00,20.61,25.40,28.70,4.87,26.98,1019.56,2035.75,2019.39,2234.39,2423.98,350.21,351.83,34.22,0000 0000 0000 0000 000000
2014-12-21 02:53:24,0.05,4.66,0.00,20.62,25.40,28.71,4.85,26.95,1019.56,2035.52,2018.71,2233.97,2423.18,350.01,351.61,34.25,0000 0000 0000 0000 000000
2014-12-21 02:58:25,0.11,4.66,0.00,20.63,25.40,28.71,4.83,26.97,1019.55,2035.41,2018.04,2233.21,2422.70,349.66,351.35,34.28,0000 0000 0000 0000 000000
2014-12-21 03:03:26,0.04,4.66,0.00,20.62,25.40,28.72,4.89,26.95,1019.56,2035.33,2017.46,2232.99,2422.02,350.12,351.65,34.31,0000 0000 0000 0000 000000
2014-12-21 03:08:28,0.16,4.66,0.00,20.59,25.40,28.73,4.89,26.98,1019.55,2035.50,2016.76,2232.30,2421.53,349.93,351.17,34.34,0000 0000 0000 0000 000000
2014-12-21 03:13:29,0.02,4.67,0.00,20.59,25.40,28.73,4.79,26.99,1019.55,2035.25,2015.99,2231.90,2420.99,349.67,351.51,34.37,0000 0000 0000 0000 000000
2014-12-21 03:18:29,0.23,4.67,0.00,20.58,25.40,28.71,4.79,26.89,1019.55,2035.34,2015.19,2231.11,2420.31,349.98,351.57,34.40,0000 0000 0000 0000 000000
2014-12-21 03:23:31,0.07,4.67,0.00,20.59,25.40,28.70,4.87,26.88,1019.55,2035.46,2014.62,2230.95,2419.99,350.65,352.00,34.43,0000 0000 0000 0000 000000
2014-12-21 03:28:32,0.11,4.68,0.00,20.59,25.40,28.72,4.85,26.93,1019.55,2035.56,2014.01,2230.18,2419.29,349.79,351.40,34.45,0000 0000 0000 0000 000000
2014-12-21 03:33:34,0.09,4.68,0.00,20.59,25.40,28.73,4.90,27.10,1019.55,2035.49,2013.21,2229.92,2418.92,350.55,352.10,34.48,0000 0000 0000 0000 000000
2014-12-21 03:38:35,0.09,4.68,0.00,20.58,25.40,28.73,4.88,27.01,1019.55,2035.27,2012.57,2229.11,2418.09,350.42,351.90,34.51,0000 0000 0000 0000 000000
2014-12-21 03:43:36,0.10,4.68,0.00,20.56,25.40,28.70,4.91,26.98,1019.55,2035.28,2011.85,2228.81,2417.63,350.42,352.16,34.54,0000 0000 0000 0000 000000
2014-12-21 03:48:38,0.15,4.69,0.00,20.57,25.39,28.71,4.81,27.00,1019.55,2035.43,2011.07,2228.05,2417.02,349.93,351.36,34.57,0000 0000 0000 0000 000000
2014-12-21 03:53:39,0.10,4.69,0.00,20.57,25.39,28.72,4.80,26.93,1019.55,2035.52,2010.35,2227.86,2416.60,349.58,351.14,34.60,0000 0000 0000 0000 000000
2014-12-21 03:58:40,0.12,4.70,0.00,20.54,25.37,28.69,4.87,26.93,1019.55,2035.67,2009.88,2227.09,2416.02,349.76,351.42,34.63,0000 0000 0000 0000 000000
2014-12-21 04:03:41,0.11,4.70,0.00,20.52,25.37,28.68,4.87,27.01,1019.54,2035.77,2009.06,2226.91,2415.63,349.87,351.64,34.66,0000 0000 0000 0000 000000
2014-12-21 04:08:43,0.14,4.70,0.00,20.53,25.37,28.69,4.82,27.10,1019.54,2035.87,2008.60,2226.16,2415.02,349.87,351.48,34.69,0000 0000 0000 0000 000000
2014-12-21 04:13:44,0.08,4.71,0.00,20.51,25.37,28.66,4.86,27.00,1019.39,2035.95,2007.89,2225.94,2414.51,349.71,351.30,34.72,0000 0000 0000 0000 000000
2014-12-21 04:18:45,0.13,4.71,0.00,20.52,25.37,28.68,4.82,27.11,1019.21,2035.96,2007.18,2225.21,2414.00,349.78,351.27,34.75,0000 0000 0000 0000 000000
2014-12-21 04:23:46,0.07,4.71,0.00,20.52,25.35,28.64,4.85,26.92,1019.14,2035.96,2006.66,2224.98,2413.54,349.95,351.52,34.78,0000 0000 0000 0000 000000
2014-12-21 04:28:48,0.11,4.72,0.00,20.53,25.35,28.65,4.86,27.11,1019.11,2035.96,2006.04,2224.35,2413.00,349.81,351.16,34.81,0000 0000 0000 0000 000000
2014-12-21 04:33:49,0.09,4.72,0.00,20.53,25.35,28.64,4.90,26.91,1019.10,2035.97,2005.50,2223.99,2412.34,350.56,351.84,34.84,0000 0000 0000 0000 000000
2014-12-21 04:38:50,0.14,4.72,0.00,20.52,25.35,28.63,4.81,27.06,1019.09,2035.97,2004.48,2223.29,2411.96,349.76,351.14,34.86,0000 0000 0000 0000 000000
2014-12-21 04:43:51,0.05,4.73,0.00,20.53,25.34,28.62,4.89,26.93,1019.13,2035.97,2003.98,2222.99,2411.17,349.83,351.30,34.89,0000 0000 0000 0000 000000
2014-12-21 04:48:53,0.13,4.73,0.00,20.51,25.32,28.62,4.82,26.92,1019.09,2035.98,2003.21,2222.34,2410.97,350.10,351.54,34.92,0000 0000 0000 0000 000000
2014-12-21 04:53:54,0.09,4.73,0.00,20.50,25.32,28.63,4.86,26.92,1019.07,2035.98,2002.58,2222.00,2410.25,350.23,351.56,34.95,0000 0000 0000 0000 000000
2014-12-21 04:58:55,0.11,3.63,0.00,20.48,25.32,28.64,4.28,23.91,1019.08,2036.69,2370.39,2481.65,2691.48,309.87,311.40,0.00,0000 0000 0000 0000 000002
2014-12-21 05:03:56,0.13,0.00,0.00,20.50,25.32,28.59,4.83,26.31,1019.07,2039.03,3578.03,3335.93,3615.89,350.17,351.61,0.01,0000 0000 0000 0000 000000
2014-12-21 05:08:58,0.12,0.00,0.00,20.54,25.32,28.57,4.75,26.23,1019.06,2039.05,3575.94,3334.98,3614.47,349.38,350.85,0.04,0000 0000 0000 0000 000000
2014-12-21 05:13:59,0.12,0.00,0.00,20.50,25.31,28.57,4.88,26.07,1019.06,2039.06,3574.44,3334.08,3613.22,349.79,351.30,0.07,0000 0000 0000 0000 000000
2014-12-21 05:19:00,0.12,0.00,0.00,20.51,25.30,28.56,4.79,25.82,1019.07,2039.07,3573.12,3333.30,3612.13,349.73,351.14,0.10,0000 0000 0000 0000 000000
2014-12-21 05:24:01,0.11,0.01,0.00,20.50,25.30,28.59,4.79,25.93,1019.09,2039.03,3571.63,3332.42,3610.94,349.41,350.74,0.13,0000 0000 0000 0000 000000
2014-12-21 05:29:03,0.10,0.01,0.00,20.50,25.30,28.58,4.93,25.99,1019.10,2039.02,3570.25,3331.44,3609.92,350.41,351.70,0.16,0000 0000 0000 0000 000000
2014-12-21 05:34:04,0.08,0.01,0.00,20.49,25.30,28.58,4.87,25.88,1019.12,2039.02,3568.95,3330.69,3609.03,349.78,351.34,0.19,0000 0000 0000 0000 000000
2014-12-21 05:39:05,0.10,0.02,0.00,20.49,25.29,28.57,4.85,26.15,1019.09,2039.03,3567.64,3329.81,3608.04,350.30,351.98,0.22,0000 0000 0000 0000 000000
2014-12-21 05:44:06,0.07,0.02,0.00,20.51,25.27,28.59,4.83,25.78,1019.10,2039.03,3566.39,3329.01,3607.02,350.23,351.85,0.24,0000 0000 0000 0000 000000
2014-12-21 05:49:07,0.10,0.02,0.00,20.49,25.27,28.55,4.83,25.90,1019.09,2039.06,3565.04,3328.07,3605.96,350.21,351.72,0.27,0000 0000 0000 0000 000000
2014-12-21 05:54:09,0.42,0.03,0.00,20.46,25.27,28.54,4.81,25.80,1019.07,2039.09,3559.51,3324.94,3602.43,350.03,351.57,0.30,0000 0000 0000 0000 000000
2014-12-21 05:59:10,0.09,0.04,0.00,20.46,25.27,28.55,4.78,25.86,1019.14,2039.08,3557.47,3323.66,3601.07,349.91,351.18,0.33,0000 0000 0000 0000 000000
2014-12-21 06:04:11,0.10,0.04,0.00,20.48,25.27,28.55,4.86,25.94,1019.26,2039.14,3556.03,3322.76,3600.02,349.66,351.11,0.36,0000 0000 0000 0000 000000
2014-12-21 06:09:13,0.29,0.05,0.00,20.46,25.27,28.55,4.89,25.85,1019.34,2039.24,3552.54,3320.55,3597.54,350.15,351.72,0.39,0000 0000 0000 0000 000000
2014-12-21 06:14:14,0.19,0.05,0.00,20.44,25.26,28.56,4.84,25.87,1019.32,2039.34,3549.82,3318.82,3595.62,349.83,351.46,0.42,0000 0000 0000 0000 000000
2014-12-21 06:19:15,0.09,0.06,0.00,20.47,25.25,28.56,4.81,25.98,1019.48,2039.24,3547.76,3317.63,3594.49,349.67,351.42,0.45,0000 0000 0000 0000 000000
2014-12-21 06:24:17,0.12,0.06,0.00,20.45,25.25,28.54,4.82,25.91,1019.47,2039.34,3546.22,3316.75,3593.34,350.33,352.24,0.48,0000 0000 0000 0000 000000
2014-12-21 06:29:18,0.06,0.06,0.00,20.47,25.25,28.54,4.86,25.95,1019.38,2039.14,3544.74,3315.76,3592.42,349.47,351.05,0.51,0000 0000 0000 0000 000000
2014-12-21 06:34:19,0.13,0.07,0.00,20.44,25.25,28.54,4.87,26.05,1019.35,2039.33,3543.65,3314.98,3591.38,349.96,351.81,0.54,0000 0000 0000 0000 000000
2014-12-21 06:39:20,0.06,0.07,0.00,20.43,25.24,28.53,4.82,26.08,1019.25,2039.36,3542.35,3314.06,3590.43,349.63,351.27,0.57,0000 0000 0000 0000 000000
2014-12-21 06:44:22,0.10,0.07,0.00,20.43,25.23,28.51,4.83,25.91,1019.29,2039.24,3540.89,3313.14,3589.53,349.78,351.35,0.60,0000 0000 0000 0000 000000
2014-12-21 06:49:23,0.12,0.07,0.00,20.45,25.22,28.50,4.81,25.87,1019.25,2039.43,3539.71,3312.35,3588.76,349.45,351.13,0.63,0000 0000 0000 0000 000000
2014-12-21 06:54:24,0.10,0.08,0.00,20.46,25.22,28.53,4.81,25.88,1019.17,2039.53,3538.50,3311.63,3587.82,349.82,351.36,0.65,0000 0000 0000 0000 000000
2014-12-21 06:59:25,0.12,0.08,0.00,20.46,25.22,28.51,4.81,25.82,1019.22,2039.69,3537.37,3310.67,3586.70,349.87,351.39,0.68,0000 0000 0000 0000 000000
2014-12-21 07:04:26,0.08,0.08,0.00,20.44,25.22,28.55,4.95,26.00,1019.31,2039.74,3536.23,3309.92,3585.75,350.16,351.96,0.71,0000 0000 0000 0000 000000
2014-12-21 07:09:27,0.08,0.09,0.00,20.44,25.22,28.53,4.97,26.04,1019.23,2039.73,3535.01,3309.02,3584.72,350.45,352.07,0.74,0000 0000 0000 0000 000000
2014-12-21 07:14:29,0.07,0.09,0.00,20.45,25.22,28.50,4.85,25.94,1019.41,2039.63,3533.75,3308.08,3583.72,349.82,351.55,0.77,0000 0000 0000 0000 000000
2014-12-21 07:19:30,0.06,0.09,0.00,20.46,25.22,28.52,4.90,25.94,1019.30,2039.42,3532.49,3307.22,3582.93,350.64,352.05,0.80,0000 0000 0000 0000 000000
2014-12-21 07:24:31,0.11,0.09,0.00,20.44,25.20,28.50,4.85,25.90,1019.17,2039.53,3531.27,3306.40,3582.07,349.72,351.43,0.83,0000 0000 0000 0000 000000
2014-12-21 07:29:32,0.09,0.10,0.00,20.44,25.20,28.51,4.76,25.84,1019.25,2039.49,3529.89,3305.52,3581.19,349.67,351.30,0.86,0000 0000 0000 0000 000000
2014-12-21 07:34:34,0.11,0.10,0.00,20.47,25.20,28.48,4.90,26.05,1019.21,2039.74,3528.77,3304.81,3580.43,350.49,351.94,0.89,0000 0000 0000 0000 000000
2014-12-21 07:39:35,0.07,0.10,0.00,20.45,25.20,28.46,4.85,26.13,1019.15,2039.71,3527.48,3303.91,3579.46,349.72,351.20,0.92,0000 0000 0000 0000 000000
2014-12-21 07:44:36,0.11,0.10,0.00,20.45,25.20,28.47,4.85,25.91,1019.11,2039.76,3526.33,3303.06,3578.52,349.82,351.49,0.95,0000 0000 0000 0000 000000
2014-12-21 07:49:37,0.11,0.11,0.00,20.43,25.20,28.51,4.85,25.95,1019.24,2039.90,3525.15,3302.21,3577.65,350.37,351.89,0.98,0000 0000 0000 0000 000000
2014-12-21 07:54:38,0.09,0.11,0.00,20.44,25.20,28.49,4.88,25.97,1019.21,2039.94,3523.98,3301.42,3576.64,350.25,351.79,1.01,0000 0000 0000 0000 000000
2014-12-21 07:59:40,0.09,0.11,0.00,20.45,25.19,28.48,4.87,26.00,1019.27,2039.93,3522.79,3300.57,3575.65,350.18,351.70,1.04,0000 0000 0000 0000 000000
2014-12-21 08:04:41,0.10,0.12,0.00,20.44,25.19,28.50,4.89,26.02,1019.27,2039.94,3521.56,3299.71,3574.69,349.75,351.50,1.06,0000 0000 0000 0000 000000
2014-12-21 08:09:42,0.08,0.12,0.00,20.43,25.18,28.46,4.90,26.02,1019.37,2039.94,3520.33,3298.80,3573.64,350.29,351.82,1.09,0000 0000 0000 0000 000000
2014-12-21 08:14:44,0.08,0.12,0.00,20.42,25.17,28.46,4.90,25.93,1019.45,2039.95,3519.07,3297.92,3572.71,350.15,351.67,1.12,0000 0000 0000 0000 000000
2014-12-21 08:19:45,0.08,0.12,0.00,20.43,25.17,28.50,4.93,25.92,1019.39,2039.92,3517.80,3297.04,3571.74,350.19,351.82,1.15,0000 0000 0000 0000 000000
2014-12-21 08:24:46,0.10,0.13,0.00,20.45,25.17,28.48,4.85,25.94,1019.31,2039.93,3516.59,3296.12,3570.80,349.73,351.28,1.18,0000 0000 0000 0000 000000
2014-12-21 08:29:47,0.10,0.13,0.00,20.45,25.17,28.47,4.84,25.93,1019.49,2039.94,3515.25,3295.30,3569.87,349.47,351.08,1.21,0000 0000 0000 0000 000000
2014-12-21 08:34:49,0.09,0.13,0.00,20.43,25.17,28.50,4.93,26.08,1019.51,2039.96,3513.89,3294.37,3568.96,350.20,351.77,1.24,0000 0000 0000 0000 000000
2014-12-21 08:39:50,0.10,0.14,0.00,20.41,25.17,28.45,4.92,26.08,1019.54,2039.95,3512.54,3293.40,3567.94,350.47,352.13,1.27,0000 0000 0000 0000 000000
2014-12-21 08:44:51,0.09,0.14,0.00,20.40,25.17,28.46,4.92,25.99,1019.54,2039.96,3511.32,3292.45,3566.90,349.80,351.74,1.30,0000 0000 0000 0000 000000
2014-12-21 08:49:52,0.09,0.14,0.00,20.44,25.17,28.48,4.91,25.89,1019.54,2039.96,3509.94,3291.59,3565.91,349.77,351.57,1.33,0000 0000 0000 0000 000000
2014-12-21 08:54:53,0.10,0.14,0.00,20.46,25.17,28.48,4.83,25.94,1019.52,2039.97,3508.63,3290.61,3564.91,349.75,351.42,1.36,0000 0000 0000 0000 000000
2014-12-21 08:59:55,0.09,0.15,0.00,20.43,25.17,28.46,4.82,25.90,1019.54,2039.97,3507.39,3289.71,3563.83,349.79,351.55,1.39,0000 0000 0000 0000 000000
2014-12-21 09:04:56,0.09,0.15,0.00,20.42,25.17,28.46,4.85,26.01,1019.53,2039.96,3506.01,3288.75,3562.80,349.69,351.66,1.42,0000 0000 0000 0000 000000
2014-12-21 09:09:58,0.11,0.15,0.00,20.46,25.17,28.46,4.91,26.00,1019.55,2039.98,3504.64,3287.77,3561.66,350.70,352.50,1.45,0000 0000 0000 0000 000000
2014-12-21 09:14:59,0.09,0.16,0.00,20.42,25.17,28.46,4.83,26.02,1019.54,2039.98,3503.25,3286.78,3560.65,350.07,351.97,1.47,0000 0000 0000 0000 000000
2014-12-21 09:20:00,0.12,0.16,0.00,20.46,25.17,28.48,4.83,25.95,1019.55,2039.97,3501.74,3285.69,3559.52,349.58,351.31,1.50,0000 0000 0000 0000 000000
2014-12-21 09:25:01,0.11,0.16,0.00,20.46,25.17,28.47,4.88,25.98,1019.54,2039.98,3500.17,3284.64,3558.31,349.70,351.50,1.53,0000 0000 0000 0000 000000
2014-12-21 09:30:03,0.12,0.17,0.00,20.45,25.17,28.46,4.80,25.95,1019.49,2039.97,3498.59,3283.56,3557.17,350.01,351.61,1.56,0000 0000 0000 0000 000000
2014-12-21 09:35:04,0.10,0.17,0.00,20.45,25.17,28.50,4.82,26.03,1019.52,2039.97,3497.18,3282.56,3556.05,349.84,351.76,1.59,0000 0000 0000 0000 000000
2014-12-21 09:40:05,0.13,0.17,0.00,20.45,25.17,28.47,4.84,25.98,1019.54,2039.96,3495.52,3281.41,3554.79,349.58,351.37,1.62,0000 0000 0000 0000 000000
2014-12-21 09:45:06,0.11,0.18,0.00,20.47,25.17,28.46,4.86,26.05,1019.53,2039.96,3493.89,3280.26,3553.57,349.91,351.71,1.65,0000 0000 0000 0000 000000
2014-12-21 09:50:07,0.10,0.18,0.00,20.45,25.17,28.47,4.93,26.05,1019.54,2039.96,3492.46,3279.23,3552.47,350.60,352.37,1.68,0000 0000 0000 0000 000000
2014-12-21 09:55:09,0.10,0.18,0.00,20.47,25.17,28.47,4.85,25.97,1019.47,2039.95,3490.91,3278.17,3551.30,349.74,351.40,1.71,0000 0000 0000 0000 000000
2014-12-21 10:00:10,0.10,0.19,0.00,20.45,25.17,28.48,4.86,26.05,1019.45,2039.97,3489.50,3277.12,3550.12,350.20,351.87,1.74,0000 0000 0000 0000 000000
2014-12-21 10:05:12,0.10,0.19,0.00,20.46,25.17,28.48,4.80,25.95,1019.40,2039.91,3487.88,3276.01,3548.87,349.73,351.48,1.77,0000 0000 0000 0000 000000
2014-12-21 10:10:13,0.11,0.19,0.00,20.51,25.17,28.48,4.89,26.03,1019.48,2039.94,3486.52,3275.01,3547.78,349.91,351.53,1.80,0000 0000 0000 0000 000000
2014-12-21 10:15:14,0.11,0.20,0.00,20.51,25.17,28.49,4.88,25.96,1019.49,2039.95,3485.10,3274.00,3546.68,350.27,351.80,1.83,0000 0000 0000 0000 000000
2014-12-21 10:20:15,0.09,0.20,0.00,20.52,25.17,28.48,4.87,26.08,1019.51,2039.96,3483.74,3273.03,3545.72,350.00,351.96,1.86,0000 0000 0000 0000 000000
2014-12-21 10:25:16,0.10,0.20,0.00,20.50,25.17,28.48,4.88,26.01,1019.55,2039.98,3482.45,3272.09,3544.70,350.12,351.77,1.88,0000 0000 0000 0000 000000
2014-12-21 10:30:17,0.11,0.21,0.00,20.51,25.17,28.46,4.89,26.05,1019.55,2039.97,3480.89,3271.10,3543.58,349.90,351.54,1.91,0000 0000 0000 0000 000000
2014-12-21 10:35:18,0.10,0.21,0.00,20.51,25.17,28.47,4.85,26.00,1019.41,2039.97,3479.58,3270.14,3542.48,350.00,351.62,1.94,0000 0000 0000 0000 000000
2014-12-21 10:40:20,0.11,0.21,0.00,20.53,25.17,28.49,4.84,26.17,1019.22,2039.96,3478.05,3269.03,3541.37,349.52,351.02,1.97,0000 0000 0000 0000 000000
2014-12-21 10:45:21,0.09,0.22,0.00,20.54,25.17,28.44,4.90,26.02,1019.11,2039.96,3476.81,3268.07,3540.31,350.58,351.98,2.00,0000 0000 0000 0000 000000
2014-12-21 10:50:22,0.10,0.22,0.00,20.55,25.18,28.47,4.88,26.07,1019.08,2039.95,3475.52,3267.09,3539.03,350.15,351.81,2.03,0000 0000 0000 0000 000000
2014-12-21 10:55:24,0.09,0.22,0.00,20.53,25.18,28.48,4.85,26.01,1019.10,2039.91,3473.98,3266.06,3537.93,349.96,351.30,2.06,0000 0000 0000 0000 000000
2014-12-21 11:00:25,0.12,0.22,0.00,20.55,25.19,28.49,4.79,25.95,1019.15,2039.94,3472.66,3265.09,3536.86,349.64,351.37,2.09,0000 0000 0000 0000 000000
2014-12-21 11:05:27,0.09,0.23,0.00,20.54,25.19,28.49,4.84,26.13,1019.16,2039.93,3471.33,3264.14,3535.91,350.12,351.65,2.12,0000 0000 0000 0000 000000
2014-12-21 11:10:28,0.10,0.23,0.00,20.56,25.20,28.50,4.84,26.07,1019.17,2039.85,3469.86,3263.25,3534.71,349.98,351.44,2.15,0000 0000 0000 0000 000000
2014-12-21 11:15:29,0.10,0.23,0.00,20.56,25.20,28.50,4.83,26.03,1019.17,2039.75,3468.51,3262.25,3533.63,349.81,351.05,2.18,0000 0000 0000 0000 000000
2014-12-21 11:20:31,0.10,0.24,0.00,20.58,25.20,28.51,4.87,25.98,1019.13,2039.76,3467.08,3261.35,3532.65,349.63,351.11,2.21,0000 0000 0000 0000 000000
2014-12-21 11:25:32,0.08,0.24,0.00,20.58,25.20,28.47,4.88,26.06,1019.11,2039.64,3465.70,3260.33,3531.47,350.52,351.80,2.24,0000 0000 0000 0000 000000
2014-12-21 11:30:33,0.11,0.24,0.00,20.57,25.20,28.49,4.92,26.05,1019.18,2039.69,3464.36,3259.33,3530.40,350.37,352.00,2.27,0000 0000 0000 0000 000000
2014-12-21 11:35:34,0.08,0.24,0.00,20.58,25.20,28.47,4.89,26.08,1019.23,2039.55,3462.87,3258.39,3529.46,350.47,351.82,2.30,0000 0000 0000 0000 000000
2014-12-21 11:40:35,0.12,0.25,0.00,20.55,25.20,28.49,4.82,26.10,1019.10,2039.53,3461.45,3257.32,3528.33,349.93,351.46,2.32,0000 0000 0000 0000 000000
2014-12-21 11:45:36,0.09,0.25,0.00,20.57,25.20,28.52,4.81,26.08,1019.10,2039.60,3460.17,3256.36,3527.22,349.66,351.48,2.35,0000 0000 0000 0000 000000
2014-12-21 11:50:37,0.12,0.25,0.00,20.56,25.21,28.51,4.91,26.07,1019.12,2039.64,3458.77,3255.39,3526.04,350.13,351.47,2.38,0000 0000 0000 0000 000000
2014-12-21 11:55:39,0.08,0.26,0.00,20.55,25.22,28.51,4.80,25.98,1019.10,2039.56,3457.38,3254.29,3524.96,349.83,351.22,2.41,0000 0000 0000 0000 000000
2014-12-21 12:00:40,0.11,0.26,0.00,20.55,25.22,28.50,4.84,26.06,1019.08,2039.42,3455.92,3253.28,3523.81,349.54,350.90,2.44,0000 0000 0000 0000 000000
2014-12-21 12:05:41,0.07,0.26,0.00,20.56,25.22,28.51,4.74,26.04,1019.07,2039.23,3454.44,3252.15,3522.50,349.45,351.04,2.47,0000 0000 0000 0000 000000
2014-12-21 12:10:42,0.10,0.27,0.00,20.56,25.22,28.49,4.79,26.02,1019.06,2039.27,3453.14,3251.16,3521.46,349.64,351.05,2.50,0000 0000 0000 0000 000000
2014-12-21 12:15:43,0.09,0.27,0.00,20.56,25.22,28.53,4.79,26.07,1019.07,2039.21,3451.70,3250.12,3520.34,349.62,351.15,2.53,0000 0000 0000 0000 000000
2014-12-21 12:20:44,0.10,0.27,0.00,20.58,25.22,28.54,4.91,26.10,1019.08,2039.13,3450.22,3249.08,3519.34,350.56,351.97,2.56,0000 0000 0000 0000 000000
2014-12-21 12:25:46,0.10,0.27,0.00,20.57,25.23,28.53,4.92,26.10,1019.08,2039.14,3448.68,3248.08,3518.34,350.40,351.91,2.59,0000 0000 0000 0000 000000
2014-12-21 12:30:47,0.10,0.28,0.00,20.57,25.23,28.50,4.79,25.94,1019.07,2039.08,3447.26,3246.99,3517.19,349.66,351.01,2.62,0000 0000 0000 0000 000000
2014-12-21 12:35:48,0.10,0.28,0.00,20.59,25.24,28.52,4.84,26.07,1019.06,2039.06,3445.77,3245.92,3516.04,349.30,350.61,2.65,0000 0000 0000 0000 000000
2014-12-21 12:40:49,0.14,0.28,0.00,20.56,25.24,28.56,4.84,26.10,1019.06,2039.03,3444.21,3244.70,3514.73,350.19,351.74,2.68,0000 0000 0000 0000 000000
2014-12-21 12:45:51,0.09,0.29,0.00,20.58,25.25,28.54,4.83,26.10,1019.06,2039.04,3442.81,3243.81,3513.73,349.56,351.13,2.70,0000 0000 0000 0000 000000
2014-12-21 12:50:52,0.11,0.29,0.00,20.58,25.25,28.52,4.83,26.09,1019.06,2039.03,3441.43,3242.79,3512.62,350.17,351.65,2.73,0000 0000 0000 0000 000000
2014-12-21 12:55:53,0.10,0.29,0.00,20.58,25.25,28.53,4.86,26.04,1019.06,2039.04,3439.99,3241.79,3511.53,350.06,351.15,2.76,0000 0000 0000 0000 000000
2014-12-21 13:00:55,0.12,0.30,0.00,20.59,25.25,28.53,4.88,26.20,1019.06,2039.03,3438.55,3240.70,3510.34,350.32,351.65,2.79,0000 0000 0000 0000 000000
2014-12-21 13:05:56,0.10,0.30,0.00,20.60,25.25,28.55,4.85,26.42,1019.01,2039.03,3436.97,3239.64,3509.19,350.06,351.07,2.82,0000 0000 0000 0000 000000